Voltar ao catálogo

STARLINK-3356

AtivoComunicaçõesVLEO
NORAD 51133·PAYLOAD·🇺🇸 United States

Lançado Jan 19, 2022 de Cape Canaveral Space Force Station

Loading…

Próximas Passagens (próximas 24 horas)

TLE

AtualizadoSource: CelesTrak SupGP

Época: Sep 14, 2026, 20:33 UTC

1 51133C 22005AF  26257.85673611  .00115860  00000+0  18863-2 0  2576
2 51133  53.1583 153.8558 0001597  89.6045 311.1738 15.51984391    10

Acompanhe STARLINK-3356 em tempo real com AllMySat

Download on the App Store